Tracking 19717 objects as of 25-Jun-2019
HD Live streaming from Space Station
objects crossing your sky now

IRIDIUM 168

Track IRIDIUM 168 now!
10-day predictions
IRIDIUM 168 is classified as:


NORAD ID: 43924
Int'l Code: 2019-002C
Perigee: 783.3 km
Apogee: 786.3 km
Inclination: 86.4 °
Period: 100.4 minutes
Semi major axis: 7155 km
RCS: Unknown
Launch date: January 11, 2019
Source: United States (US)
Launch site: AIR FORCE WESTERN TEST RANGE (AFWTR)
aabbcc
Your satellite tracking list
Your tracking list is empty




NASA's NSSDC Master Catalog

Two Line Element Set (TLE):
1 43924U 19002C   19175.71819007 +.00000061 +00000-0 +14795-4 0  9997
2 43924 086.3966 338.9906 0002140 102.2368 257.9067 14.34218556023559
Source of the keplerian elements: AFSPC